Weslaco, TX

2:52 PM CDT on May 29, 2017 (GMT -0500)
Weslaco

Weather History for KT65 - April, 2013

Change the Weather History Date:

Saturday, April 20, 2013

  Actual Average (KMFE) Record (KMFE)
Temperature  
Mean Temperature 64 °F -  
Max Temperature 80 °F 84 °F 99 °F (1966)
Min Temperature 48 °F 65 °F 50 °F (2013)
Degree Days  
Heating Degree Days 2    
Growing Degree Days 14 (Base 50)    
Moisture  
Dew Point 41 °F    
Average Humidity 46    
Maximum Humidity 75    
Minimum Humidity 20    
Precipitation  
Precipitation 0.00 in - - ()
Sea Level Pressure  
Sea Level Pressure 30.12 in    
Wind  
Wind Speed 4 mph (ESE)    
Max Wind Speed 15 mph    
Max Gust Speed 22 mph    
Visibility 10 miles    
Events      
Averages and records for this station are not official NWS values.
T = Trace of Precipitation, MM = Missing Value Source: NWS Daily Summary

Daily Weather History Graph

Daily Weather History Graph

Search for Another Location

Airport or City:

Trip Planner

Search our weather history database for the weather conditions in past years. The results will help you decide how hot, cold, wet, or windy it might be!

Date:

Astronomy

Apr. 20, 2013 Rise Set
Actual Time 7:03 AM CDT 7:58 PM CDT
Civil Twilight 6:39 AM CDT 8:22 PM CDT
Nautical Twilight 6:11 AM CDT 8:50 PM CDT
Astronomical Twilight 5:43 AM CDT 9:18 PM CDT
Moon 3:12 PM CDT (4/20) 3:22 AM CDT (4/20)
Length of Visible Light 13h 42m
Length of Day
12h 54m
Waxing Gibbous, 71% of the Moon is Illuminated
Apr 20
Waxing Gibbous
Apr 25
Full
May 2
Last Quarter
May 9
New
May 17
First Quarter

Hourly Weather History & Observations

Time (CDT) Temp. Dew Point Humidity Pressure Visibility Wind Dir Wind Speed Gust Speed Precip Events Conditions
12:15 AM 56.3 °F 39.2 °F 53% 30.23 in 10.0 mi SSE 4.6 mph - N/A   Clear
12:35 AM 55.8 °F 39.2 °F 54% 30.23 in 10.0 mi SSE 3.5 mph - N/A   Clear
12:55 AM 55.2 °F 40.1 °F 57% 30.23 in 10.0 mi SSE 3.5 mph - N/A   Clear
1:35 AM 54.0 °F 39.6 °F 58% 30.22 in 10.0 mi Calm Calm - N/A   Clear
1:55 AM 53.6 °F 39.7 °F 59% 30.21 in 10.0 mi South 3.5 mph - N/A   Clear
2:15 AM 53.6 °F 40.1 °F 60% 30.20 in 10.0 mi South 3.5 mph - N/A   Clear
2:35 AM 53.2 °F 40.1 °F 61% 30.20 in 10.0 mi South 3.5 mph - N/A   Clear
2:55 AM 53.6 °F 40.1 °F 60% 30.19 in 10.0 mi Calm Calm - N/A   Clear
3:15 AM 52.7 °F 39.6 °F 61% 30.19 in 10.0 mi Calm Calm - N/A   Clear
3:35 AM 52.5 °F 39.9 °F 62% 30.19 in 10.0 mi Calm Calm - N/A   Clear
3:55 AM 53.4 °F 40.5 °F 61% 30.18 in 10.0 mi Calm Calm - N/A   Clear
4:15 AM 51.6 °F 40.1 °F 65% 30.18 in 10.0 mi Calm Calm - N/A   Clear
4:35 AM 52.2 °F 40.5 °F 64% 30.18 in 10.0 mi Calm Calm - N/A   Clear
4:55 AM 51.4 °F 40.1 °F 65% 30.17 in 10.0 mi Calm Calm - N/A   Clear
5:15 AM 51.1 °F 40.1 °F 66% 30.17 in 10.0 mi Calm Calm - N/A   Clear
5:35 AM 50.5 °F 39.7 °F 66% 30.17 in 10.0 mi Calm Calm - N/A   Clear
5:55 AM 50.2 °F 40.1 °F 68% 30.16 in 10.0 mi Calm Calm - N/A   Clear
6:15 AM 50.4 °F 40.1 °F 68% 30.17 in 10.0 mi Calm Calm - N/A   Clear
6:35 AM 50.2 °F 39.4 °F 66% 30.18 in 10.0 mi Calm Calm - N/A   Clear
6:55 AM 48.0 °F 38.7 °F 70% 30.18 in 10.0 mi Calm Calm - N/A   Clear
7:15 AM 48.4 °F 39.6 °F 72% 30.18 in 10.0 mi Calm Calm - N/A   Clear
7:35 AM 48.7 °F 40.3 °F 73% 30.18 in 10.0 mi Calm Calm - N/A   Clear
7:55 AM 50.5 °F 43.0 °F 75% 30.19 in 10.0 mi Calm Calm - N/A   Clear
8:15 AM 53.6 °F 43.0 °F 67% 30.19 in 10.0 mi Calm Calm - N/A   Clear
8:35 AM 57.4 °F 43.0 °F 59% 30.19 in 10.0 mi Calm Calm - N/A   Clear
8:55 AM 60.6 °F 43.0 °F 52% 30.18 in 10.0 mi Calm Calm - N/A   Clear
9:15 AM 63.7 °F 42.3 °F 46% 30.18 in 10.0 mi Calm Calm - N/A   Clear
9:35 AM 66.4 °F 41.9 °F 41% 30.19 in 10.0 mi East 3.5 mph - N/A   Clear
10:15 AM 69.8 °F 42.8 °F 38% 30.19 in 10.0 mi East 5.8 mph - N/A   Clear
10:35 AM 70.9 °F 40.8 °F 34% 30.20 in 10.0 mi East 10.4 mph - N/A   Clear
10:55 AM 71.8 °F 39.0 °F 30% 30.20 in 7.0 mi East 9.2 mph - N/A   Clear
11:15 AM 72.1 °F 39.7 °F 31% 30.19 in 10.0 mi East 8.1 mph - N/A   Clear
11:35 AM 73.6 °F 38.5 °F 28% 30.19 in 10.0 mi East 6.9 mph - N/A   Clear
11:55 AM 74.1 °F 37.9 °F 27% 30.18 in 10.0 mi East 8.1 mph - N/A   Clear
12:15 PM 74.7 °F 36.7 °F 25% 30.17 in 10.0 mi SE 5.8 mph - N/A   Clear
12:35 PM 75.4 °F 36.5 °F 24% 30.16 in 10.0 mi NE 4.6 mph - N/A   Clear
12:55 PM 77.4 °F 35.4 °F 22% 30.15 in 10.0 mi SE 6.9 mph - N/A   Clear
1:15 PM 77.0 °F 36.0 °F 23% 30.13 in 10.0 mi East 11.5 mph 17.3 mph N/A   Clear
1:35 PM 78.1 °F 35.2 °F 21% 30.13 in 7.0 mi SSE 10.4 mph - N/A   Clear
1:55 PM 78.6 °F 36.3 °F 22% 30.11 in 10.0 mi East 3.5 mph 17.3 mph N/A   Clear
2:15 PM 78.8 °F 35.8 °F 21% 30.10 in 10.0 mi East 11.5 mph 17.3 mph N/A   Clear
2:35 PM 79.0 °F 34.7 °F 20% 30.09 in 10.0 mi SE 3.5 mph 17.3 mph N/A   Clear
2:55 PM 79.0 °F 34.7 °F 20% 30.08 in 10.0 mi East 5.8 mph 16.1 mph N/A   Clear
3:15 PM 79.3 °F 35.1 °F 20% 30.07 in 10.0 mi ESE 5.8 mph - N/A   Clear
3:35 PM 79.5 °F 35.1 °F 20% 30.06 in 10.0 mi SSE 5.8 mph 9.2 mph N/A   Clear
3:55 PM 79.5 °F 36.5 °F 21% 30.04 in 10.0 mi ESE 10.4 mph - N/A   Clear
4:15 PM 79.2 °F 36.5 °F 22% 30.03 in 10.0 mi Calm Calm - N/A   Clear
4:35 PM 79.3 °F 39.4 °F 24% 30.03 in 10.0 mi SE 12.7 mph 17.3 mph N/A   Clear
4:55 PM 78.8 °F 41.2 °F 26% 30.02 in 10.0 mi ESE 11.5 mph 17.3 mph N/A   Clear
5:15 PM 78.4 °F 42.1 °F 27% 30.01 in 10.0 mi East 11.5 mph 18.4 mph N/A   Clear
5:35 PM 77.9 °F 42.6 °F 28% 30.00 in 10.0 mi ESE 11.5 mph 19.6 mph N/A   Clear
5:55 PM 76.6 °F 42.8 °F 30% 30.00 in 10.0 mi East 12.7 mph 17.3 mph N/A   Clear
6:15 PM 75.7 °F 43.2 °F 31% 30.01 in 10.0 mi East 15.0 mph 21.9 mph N/A   Clear
6:35 PM 75.2 °F 43.7 °F 32% 30.00 in 10.0 mi East 13.8 mph 21.9 mph N/A   Clear
6:55 PM 74.1 °F 44.2 °F 34% 30.00 in 10.0 mi ESE 12.7 mph 20.7 mph N/A   Clear
7:15 PM 72.9 °F 45.0 °F 37% 30.00 in 10.0 mi ESE 15.0 mph 21.9 mph N/A   Clear
7:35 PM 71.8 °F 45.7 °F 39% 30.00 in 10.0 mi ESE 15.0 mph 21.9 mph N/A   Clear
7:55 PM 70.5 °F 46.9 °F 43% 30.00 in 10.0 mi ESE 15.0 mph 19.6 mph N/A   Clear
8:15 PM 69.3 °F 47.7 °F 46% 30.01 in 10.0 mi ESE 13.8 mph 19.6 mph N/A   Clear
8:35 PM 68.4 °F 47.8 °F 48% 30.02 in 10.0 mi ESE 10.4 mph - N/A   Clear
8:55 PM 67.6 °F 47.7 °F 49% 30.03 in 10.0 mi SE 11.5 mph 20.7 mph N/A   Clear
9:15 PM 66.9 °F 48.2 °F 51% 30.06 in 10.0 mi SE 8.1 mph - N/A   Clear
9:35 PM 66.2 °F 48.7 °F 53% 30.05 in 10.0 mi SE 8.1 mph - N/A   Clear
9:55 PM 65.3 °F 49.3 °F 56% 30.06 in 10.0 mi SE 6.9 mph - N/A   Clear
10:15 PM 64.8 °F 50.0 °F 59% 30.06 in 10.0 mi SE 5.8 mph - N/A   Clear
10:35 PM 64.2 °F 50.2 °F 60% 30.07 in 10.0 mi SE 4.6 mph - N/A   Clear
10:55 PM 64.2 °F 50.2 °F 60% 30.07 in 10.0 mi ESE 4.6 mph - N/A   Clear
11:15 PM 63.0 °F 50.0 °F 63% 30.07 in 10.0 mi ESE 3.5 mph - N/A   Clear
11:35 PM 62.8 °F 50.5 °F 64% 30.07 in 10.0 mi ESE 4.6 mph - N/A   Clear
11:55 PM 61.9 °F 49.8 °F 65% 30.06 in 10.0 mi East 3.5 mph - N/A   Clear